Regional Weather Roundup
Issued by NWS Portland, ME

Home | Current Version | Previous Version | Text Only | Print | Product List | Glossary On
Versions: 1 2 3 4 5 6 7 8 9 10 11 12 13 14 15 16 17 18 19 20 21 22 23 24 25 26 27 28 29 30 31 32 33 34 35 36 37 38 39 40 41 42 43 44 45 46 47 48 49 50
000
ASUS41 KGYX 282210
RWRGYX
WEATHER ROUNDUP FOR MAINE AND NEW HAMPSHIRE
NATIONAL WEATHER SERVICE GRAY ME
600 PM EDT SAT MAR 28 2015

MEZ002-005-006-010-012-015-018-020-021-024-026-027-029-282300-
MAINE

CITY           SKY/WX    TMP DP  RH WIND       PRES   REMARKS
PORTLAND       CLOUDY    40  21  46 NE6       29.80R
SANFORD        MOSUNNY   37  19  48 N8        29.81R
BAR HARBOR     CLOUDY    36  18  48 N6        29.76R
WISCASSET      CLOUDY    39  16  39 VRB5      29.79R
ROCKLAND       CLOUDY    36  19  51 N3        29.77R
FRYEBURG       MOSUNNY   35  16  45 N9        29.81R
LEWISTONAUBURN CLOUDY    37  18  44 N8        29.78R
AUGUSTA        PTSUNNY   37  15  40 N14       29.78R
WATERVILLE     MOCLDY    37  16  41 N12       29.75R
BANGOR         CLOUDY    36  16  44 N12       29.77R
GREENVILLE       N/A     30  11  45 NW12G21   29.72R
MILLINOCKET    MOCLDY    36  12  37 N9G16     29.78S
HOULTON        CLOUDY    32  12  43 N13       29.75F
PRESQUE ISLE   MOCLDY    32   9  37 NW18      29.79S
FRENCHVILLE    PTCLDY    26   2  35 N14       29.80R WCI  14
CARIBOU        MOCLDY    30  10  43 NW15      29.77S WCI  19
$$

NHZ002-005-008-009-011-012-014-282300-
NEW HAMPSHIRE

CITY           SKY/WX    TMP DP  RH WIND       PRES   REMARKS
PORTSMOUTH     PTSUNNY   35  29  79 S3        29.81R
ROCHESTER      CLOUDY    37  24  59 N6        29.80R
NASHUA         LGT SNOW  34  31  89 N10       29.84R FOG
MANCHESTER     LGT SNOW  34  32  92 NW9       29.82R FOG
CONCORD        CLOUDY    36  25  64 NW6       29.82R
LACONIA        CLOUDY    36  18  48 NW7G18    29.79R
PLYMOUTH       PTSUNNY   35  22  59 NW10G16   29.83R
BERLIN         PTSUNNY   30  13  49 NW12G21   29.82R
WHITEFIELD     MOSUNNY   31  13  47 N12       29.83R
JAFFREY        CLOUDY    31  23  72 NW5       29.81R
KEENE          MOSUNNY   34  19  55 N9        29.85R
LEBANON        CLOUDY    33  15  47 N14G21    29.86R
MT WASHINGTON  SNOW       5   5 100 NW28        N/A  VSB 0   WCI -18
$$

VTZ005-007-008-282300-
VERMONT

CITY           SKY/WX    TMP DP  RH WIND       PRES   REMARKS
ST JOHNSBURY     N/A     29  12  49 MISG      29.87R
MONTPELIER     SUNNY     24  11  57 NW13G23   29.92R WCI  12
BURLINGTON     MOSUNNY   27   3  35 N10G22    30.00R WCI  17
$$

MAZ007-012-024-CTZ003-RIZ002-NYZ038-NYZ072-282300-
SOUTHERN NEW ENGLAND AND NY

CITY           SKY/WX    TMP DP  RH WIND       PRES   REMARKS
BOSTON         LGT SNOW  34  31  88 N7        29.84R FOG
WORCESTER      LGT SNOW  31  28  89 N6        29.80R VSB 1
NANTUCKET      CLOUDY    35  31  85 N15G25    29.79R
PROVIDENCE     LGT SNOW  34  31  88 NE14      29.84R VSB 1
HARTFORD       LGT SNOW  32  26  78 NW9       29.87R FOG
ALBANY         LGT SNOW  29  21  72 NW13      29.95R VSB 1   WCI  19
NEW YORK CITY  PTSUNNY   36  24  62 N14       29.90R
$$

ANZ081-ANZ082-ANZ150-NHZ014-MEZ023>029-282300-
COASTAL MARINE OBSERVATIONS

STATION/POSITION TIME  TEMP    WIND        PRES    WAVE
                       AIR SEA DIR/SP/G            HT/PER
                 (UTC) (F)     (DEG/KT/KT) (MB)    (FT/S)
MOUNT DESERT ROC 2200   34                 1007.0R
MATINICUS ROCK   2200   32      40/ 13/ 15 1008.2R
WELLS            2100   36      60/  4/  6 1007.7F
ISLE OF SHOALS   2200   33      30/  9/ 10 1009.3R
JEFFREYS LEDGE   2121      40                N/A     9/11
CASHES LEDGE BUO 2150   32 38              1007.5R   9/ 6
$$

.............KEY..............
   WCI - WIND CHILL
   TC  - TEMPERATURE IN CELSIUS
   VSB - VISIBILITY IN MILES
   HX  - HEAT INDEX
   FAIR- INDICATES FEW OR NO CLOUDS BELOW 12,000 FT, WITH NO
         SIGNIFICANT WEATHER AND/OR OBSTRUCTIONS TO VISIBILITY.




USA.gov is the U.S. government's official web portal to all federal, state and local government web resources and services.